AirNav   TITAN Aviation Fuels
 
 1095 users online  

77F Winters Municipal Airport
Winters, Texas, USA

GOING TO WINTERS?


FAA INFORMATION EFFECTIVE 22 APRIL 2021

Location

FAA Identifier: 77F
Lat/Long: 31-56-49.8991N 099-59-09.0602W
31-56.831652N 099-59.151003W
31.9471942,-99.9858501
(estimated)
Elevation: 1871 ft. / 570.3 m (surveyed)
Variation: 08E (1980)
From city: 2 miles SW of WINTERS, TX
Time zone: UTC -5 (UTC -6 during Standard Time)
Zip code: 79567

Airport Operations

Airport use: Open to the public
Control tower: no
ARTCC: FORT WORTH CENTER
FSS: SAN ANGELO FLIGHT SERVICE STATION
NOTAMs facility: SJT (NOTAM-D service available)
Attendance: UNATNDD
Wind indicator: lighted
Segmented circle: yes
Lights: SS-SR
Beacon: white-green (lighted land airport)
Operates sunset to sunrise.

Airport Communications

CTAF: 122.9
ABILENE APPROACH: 127.2 [OPR 1200-0200Z++ MON-FRI; 1800-2300Z++ SUN; CLSD SAT AND HOL, OT CTC FORT WORTH CENTER 133.5 350.35.]
ABILENE DEPARTURE: 127.2 [OPR 1200-0200Z++ MON-FRI; 1800-2300Z++ SUN; CLSD SAT AND HOL, OT CTC FORT WORTH CENTER 133.5 350.35.]

Nearby radio navigation aids

VOR radial/distance  VOR name  Freq  Var
TQAr196/19.3TUSCOLA VOR/DME111.6010E
ABIr181/32.6ABILENE VORTAC113.7010E

Airport Services

Parking: tiedowns

Runway Information

Runway 17/35

Dimensions: 3204 x 50 ft. / 977 x 15 m
Surface: asphalt, in fair condition
Weight bearing capacity: 
Single wheel: 12.0
Runway edge lights: low intensity
Runway edge markings: PAINT MARKINGS FADED.
RUNWAY 17  RUNWAY 35
Latitude: 31-57.095873N31-56.567430N
Longitude: 099-59.148910W099-59.153095W
Elevation: 1865.5 ft.1871.0 ft.
Traffic pattern: leftleft
Runway heading: 172 magnetic, 180 true352 magnetic, 000 true
Markings: nonprecision, in poor conditionnonprecision, in poor condition
Touchdown point: yes, no lightsyes, no lights
Obstructions: 5 ft. fence, 200 ft. from runway, 163 ft. right of centerline
+5 FT FENCE FM THLD TO 200 FT FM THLD AND 243 FT TO 163 FT RIGHT.
4 ft. fence, 200 ft. from runway, 180 ft. left of centerline
+4 FT FENCE 200 FT LEFT OF CNTRLN AT THLD; SCATTERED 10-20 + FT TREES 0 - 200 FT FM THLD 180 FT LEFT

Airport Ownership and Management from official FAA records

Ownership: Publicly-owned
Owner: CITY OF WINTERS
310 S MAIN
WINTERS, TX 79567
Phone 325-754-4424
Manager: STEVE BALLARD
P.O. BOX 63
WINTERS, TX 79567
Phone (325) 365-6333

Airport Operational Statistics

Aircraft based on the field: 7
Single engine airplanes: 7
    
Aircraft operations: avg 40/week *
67% local general aviation
33% transient general aviation
* for 12-month period ending 27 February 2018

Additional Remarks

4 FT PROPERTY LINE FENCE 163-200 FT WEST OF RY.
SOUTH PARL TXY OTS.
FOR CD CTC FORT WORTH ARTCC AT 817-858-7584.

Instrument Procedures

NOTE: All procedures below are presented as PDF files. If you need a reader for these files, you should download the free Adobe Reader.

NOT FOR NAVIGATION. Please procure official charts for flight.
FAA instrument procedures published for use from 22 April 2021 at 0901Z to 20 May 2021 at 0900z.

 
IAPs - Instrument Approach Procedures
RNAV (GPS) RWY 17   download (168KB)
RNAV (GPS) RWY 35   download (195KB)
NOTE: Special Take-Off Minimums/Departure Procedures apply   download (107KB)

Other nearby airports with instrument procedures:

E30 - Bruce Field Airport (16 nm S)
KDYS - Dyess Air Force Base (29 nm N)
KCOM - Coleman Municipal Airport (30 nm E)
KABI - Abilene Regional Airport (32 nm NE)
KSWW - Avenger Field Airport (40 nm NW)
 
Loc | Ops | Rwys | IFR | FBO | Links
Com | Nav | Svcs | Stats | Notes
Area around 77F (Winters Municipal Airport)
 
Road maps at: MapQuest Bing Google
 
Aerial photo
WARNING: Photo may not be current or correct
Aerial photo of 77F (Winters Municipal Airport)
Taken in December 2004

Do you have a better or more recent aerial photo of Winters Municipal Airport that you would like to share? If so, please send us your photo.

 
Sectional chart

 
Airport distance calculator
Flying to Winters Municipal Airport? Find the distance to fly.

From to 77F

Sunrise and sunset
Times for 13-May-2021
 Local
(UTC-5)
 Zulu
(UTC)
Morning civil twilight06:1811:18
Sunrise06:4511:45
Sunset20:2801:28
Evening civil twilight20:5401:54

Current date and time
Zulu (UTC)  14-May-2021 01:31:30
Local (UTC-5)  13-May-2021 20:31:30
 
METAR
KDYS 
29nm N 
140056Z AUTO 11008KT 10SM CLR 19/10 A3019 RMK AO2 SLP202 T01940101
KCOM 
30nm E 
140115Z AUTO 11006KT 10SM CLR 18/12 A3020 RMK AO2 T01830120
KABI 
32nm NE 
140052Z 12008KT 10SM CLR 19/12 A3019 RMK AO2 SLP209 T01940122
KSWW 
40nm NW 
140115Z AUTO 07007KT 10SM CLR 20/11 A3021 RMK AO2 T01970113
KSJT 
44nm SW 
140051Z 09010KT 10SM CLR 21/12 A3017 RMK AO2 SLP205 T02110122 $
TAF
KDYS 
29nm N 
132000Z 1320/1502 VRB06KT 9999 BKN030 QNH3014INS TEMPO 1409/1414 8000 BR OVC009 BECMG 1413/1414 17010G15KT 9999 BKN030 QNH3013INS BECMG 1418/1419 17010G15KT 9999 SCT030 QNH2997INS BECMG 1501/1502 17012KT 9999 BKN030 QNH2998INS TX24/1420Z TN13/1411Z
KABI 
32nm NE 
131735Z 1318/1418 11007KT P6SM BKN050 FM132100 14008KT P6SM SCT100 FM141300 17010KT P6SM OVC050
NOTAMs
Click for the latest NOTAMs
NOTAMs are issued by the DoD/FAA and will open in a separate window not controlled by AirNav.

 

 
 

Would you like to see your business listed on this page?

 If your business provides an interesting product or service to pilots, flight crews, aircraft, or users of the Winters Municipal Airport, you should consider listing it here.  To start the listing process, click on the button below
 
Add a business
 

Other Pages about Winters Municipal Airport

Update a link
 
Copyright © AirNav, LLC. All rights reserved. Privacy Policy  Contact